[[{"header":{"parameterUnit":"m.s-1","parameterCategory":2,"la1":30.2991,"la2":30.254,"lo1":-89.0895,"lo2":-89.0444,"dy":0.0017,"dx":0.0017,"nx":28,"ny":28,"refTime":"2023-08-06T03:00:00:Z","depth":"0","parameterNumber":2,"parameterNumberName":"U-component_of_CURRENTS"},"data":[0,0,0,0,0,0,0,0,0,0,0,0,0,0,0,0,0,0,0,0,0,0,0,0,0,0,0,0,0,0,0,0,0,0,0,0,0,0,0,0,0,0,0,0,0,0,0,0,0,0,0,0,0,0,0,0,0,0,0.333,0.3331,0,0.3355,0.3355,0.3355,0.3332,0.3331,0.3331,0.333,0.3399,0.3401,0.3404,0,0,0,0,0,0,0,0,0,0,0,0,0,0.3271,0.3272,0.333,0.3331,0.3332,0.3355,0.3355,0.3355,0.3332,0.3331,0.3331,0.333,0.3398,0.3401,0.3404,0,0,0,0,0,0,0,0,0,0,0,0,0,0.3293,0.3272,0.333,0.3326,0.3326,0.3355,0.3355,0.3355,0.3332,0.3331,0.333,0.3329,0.3397,0.3401,0.3404,0.3445,0,0,0.3415,0.3417,0,0,0,0,0,0,0,0,0.3292,0.3295,0.3326,0.3326,0.3326,0.3343,0.336,0.3389,0.3332,0.3326,0.333,0.3329,0.3387,0.3392,0.3392,0.3448,0.3451,0.3415,0.3418,0.3419,0.342,0,0,0,0,0,0,0,0.329,0.3294,0.3337,0.3326,0.3327,0.3325,0.3327,0.3365,0.3359,0.3326,0.3326,0.3334,0.3387,0.3389,0.3394,0.3452,0.3415,0.3419,0.3421,0.3422,0.3539,0.354,0,0,0,0,0,0,0.3295,0.3293,0.3336,0.3338,0.331,0.3327,0.3329,0.3335,0.3358,0.3361,0.3335,0.3333,0.3383,0.339,0.3397,0.3469,0.3419,0.3423,0.3425,0.3538,0.3539,0.354,0,0,0,0,0,0,0.3294,0.3299,0.3335,0.3318,0.3323,0.333,0.3337,0.3336,0.3345,0.3365,0.3368,0.3346,0.3383,0.3392,0.3443,0.3471,0.3424,0.3427,0.3537,0.3539,0.354,0.36,0,0,0,0,0,0,0.3292,0.3298,0.3302,0.3319,0.3325,0.337,0.3338,0.3338,0.3354,0.3351,0.3376,0.338,0.3383,0.3437,0.3446,0.3475,0.343,0.3536,0.3538,0.3539,0.3596,0.3603,0.3608,0,0,0,0,0,0.329,0.3308,0.3302,0.3308,0.3331,0.3372,0.3375,0.3373,0.3355,0.3374,0.3385,0.3379,0.3454,0.3442,0.3452,0.3482,0.3535,0.3537,0.3539,0.3594,0.3602,0.3608,0,0,0,0,0,0,0.3292,0.3309,0.3302,0.3325,0.3353,0.337,0.3384,0.3384,0.3405,0.3398,0.3406,0.3414,0.3463,0.3467,0.3453,0.3517,0.3488,0.3493,0.3526,0.3534,0.354,0.3558,0.3433,0,0,0,0,0,0.3294,0.3311,0.333,0.3355,0.3363,0.3374,0.3388,0.339,0.3412,0.3418,0.3439,0.3455,0.3479,0.3502,0.3523,0.3575,0.3608,0.3594,0.36,0.3605,0.3626,0.3692,0.3707,0.3547,0.3547,0.3547,0,0,0.3301,0.3317,0.3324,0.3357,0.3369,0.3394,0.3379,0.341,0.3432,0.3427,0.3468,0.3483,0.3496,0.3544,0.3565,0.3553,0.3671,0.3608,0.3613,0.363,0.3697,0.3712,0.3727,0.3549,0.3549,0.3548,0,0,0.3339,0.3339,0.3364,0.3387,0.3416,0.342,0.3433,0.3459,0.3467,0.3511,0.3507,0.355,0.3583,0.3611,0.3622,0.368,0.3698,0.3672,0.3728,0.3793,0.3807,0.382,0.3899,0.3919,0.3678,0.3679,0.3679,0,0.3347,0.3374,0.3382,0.3417,0.3434,0.3433,0.3464,0.348,0.3523,0.3543,0.3529,0.3598,0.3617,0.3682,0.3699,0.3698,0.3738,0.37,0.3803,0.3817,0.3829,0.3907,0.3928,0.3682,0.3681,0.3681,0.3681,0,0.34,0.342,0.3442,0.3472,0.3497,0.3525,0.3544,0.3571,0.3572,0.3591,0.3653,0.3685,0.3726,0.3737,0.374,0.3833,0.3835,0.3802,0.379,0.3849,0.3927,0.3948,0.3686,0.3685,0.3684,0.3683,0,0,0.3397,0.3463,0.3464,0.3479,0.3521,0.3541,0.3586,0.3624,0.3646,0.3691,0.374,0.3799,0.3815,0.3831,0.3846,0.3913,0.4044,0.3902,0.3904,0.3991,0.4208,0.4182,0.4202,0.4026,0.403,0.4033,0.4235,0,0.3424,0.3485,0.3516,0.3557,0.3575,0.3599,0.3638,0.3677,0.3702,0.3752,0.3798,0.3847,0.3847,0.3874,0.3945,0.4002,0.4098,0.3994,0.4129,0.4135,0.4112,0.4225,0.407,0.4234,0.4255,0.4258,0.4261,0,0.3433,0.3476,0.3521,0.3577,0.3587,0.3614,0.3656,0.3697,0.3769,0.3797,0.3864,0.3896,0.4005,0.3985,0.4156,0.4087,0.4171,0.4224,0.4232,0.4203,0.4147,0.4173,0.4271,0.4061,0.4293,0.429,0.4288,0,0.3371,0.346,0.3487,0.3507,0.358,0.3603,0.3639,0.3704,0.3731,0.383,0.3868,0.398,0.4036,0.4152,0.4267,0.4221,0.4457,0.4394,0.4468,0.4467,0.4362,0.4345,0.4279,0.4557,0.4557,0.4556,0.4556,0,0.3341,0.3359,0.3459,0.346,0.3495,0.3568,0.3596,0.3652,0.3733,0.3774,0.3884,0.3948,0.4081,0.4215,0.4314,0.4467,0.4502,0.4523,0.453,0.4378,0.4362,0.4191,0.4099,0.4564,0.4562,0.4561,0.456,0,0.3233,0.3304,0.3333,0.3425,0.345,0.3467,0.3543,0.3573,0.3671,0.3734,0.3773,0.3939,0.4122,0.4279,0.4481,0.4521,0.4541,0.4726,0.455,0.4533,0.4349,0.4267,0.4208,0.4106,0.4823,0.4824,0.4824,0,0.3195,0.3194,0.3268,0.3279,0.331,0.3356,0.3386,0.3506,0.3546,0.3721,0.3753,0.3966,0.4098,0.4401,0.4549,0.4757,0.459,0.4703,0.4584,0.4357,0.4272,0.4129,0.4035,0.4482,0.448,0.4478,0.4477,0,0.3098,0.3106,0.3105,0.3135,0.3169,0.3209,0.3272,0.3311,0.3462,0.3558,0.3707,0.384,0.415,0.4283,0.4555,0.4655,0.4429,0.4671,0.4473,0.4051,0.3855,0.3751,0.434,0.446,0.4462,0.4463,0.4464,0.4465,0.2996,0.2966,0.2956,0.2962,0.3009,0.3047,0.3052,0.316,0.3246,0.3368,0.3577,0.3683,0.3935,0.4297,0.4399,0.435,0.4375,0.4214,0.416,0.4056,0.3861,0.4432,0.4521,0.4523,0.4524,0.4526,0.4527,0,0.286,0.281,0.2801,0.2806,0.2804,0.2879,0.2951,0.2958,0.3043,0.3169,0.3306,0.3438,0.3602,0.3769,0.3902,0.3821,0.3716,0.3698,0.3414,0.3371,0.391,0.3789,0.3674,0.3674,0.3675,0.3675,0.3675,0.3675,0.2766,0.2674,0.2656,0.2593,0.2609,0.2591,0.2616,0.2667,0.2719,0.275,0.2755,0.2906,0.3135,0.3314,0.3277,0.3248,0.2994,0.2935,0.2914,0.3207,0.3247,0.3286,0.3146,0.2898,0.2897,0.2259,0.2253,0.2249]},{"header":{"parameterUnit":"m.s-1","parameterCategory":2,"la1":30.2991,"la2":30.254,"lo1":-89.0895,"lo2":-89.0444,"dy":0.0017,"dx":0.0017,"nx":28,"ny":28,"refTime":"2023-08-06T03:00:00:Z","depth":"0","parameterNumber":3,"parameterNumberName":"V-component_of_CURRENTS"},"data":[0,0,0,0,0,0,0,0,0,0,0,0,0,0,0,0,0,0,0,0,0,0,0,0,0,0,0,0,0,0,0,0,0,0,0,0,0,0,0,0,0,0,0,0,0,0,0,0,0,0,0,0,0,0,0,0,0,0,-0.0725,-0.0725,0,-0.0791,-0.0792,-0.0793,-0.0823,-0.0823,-0.0823,-0.0823,-0.0941,-0.0945,-0.0948,0,0,0,0,0,0,0,0,0,0,0,0,0,-0.0663,-0.0664,-0.0724,-0.0725,-0.0726,-0.0791,-0.0792,-0.0793,-0.0823,-0.0823,-0.0823,-0.0823,-0.094,-0.0944,-0.0948,0,0,0,0,0,0,0,0,0,0,0,0,0,-0.0707,-0.0664,-0.0724,-0.0748,-0.075,-0.0791,-0.0792,-0.0793,-0.0824,-0.0823,-0.0823,-0.0823,-0.0939,-0.0944,-0.0949,-0.0986,0,0,-0.0964,-0.0966,0,0,0,0,0,0,0,0,-0.0704,-0.0709,-0.0744,-0.0746,-0.0749,-0.0797,-0.0814,-0.086,-0.0824,-0.0797,-0.0823,-0.0822,-0.0897,-0.0906,-0.092,-0.0991,-0.0997,-0.0965,-0.0968,-0.097,-0.0971,0,0,0,0,0,0,0,-0.0701,-0.0707,-0.0752,-0.0744,-0.0748,-0.0768,-0.0774,-0.0823,-0.085,-0.08,-0.0802,-0.0807,-0.0899,-0.0915,-0.0924,-0.0998,-0.0965,-0.0969,-0.0972,-0.0974,-0.1074,-0.1074,0,0,0,0,0,0,-0.0688,-0.0704,-0.075,-0.0754,-0.0724,-0.0769,-0.0776,-0.0783,-0.0849,-0.0858,-0.0807,-0.0808,-0.0907,-0.0918,-0.0928,-0.0926,-0.097,-0.0975,-0.0977,-0.1074,-0.1074,-0.1073,0,0,0,0,0,0,-0.0687,-0.0692,-0.0748,-0.0729,-0.0737,-0.077,-0.0779,-0.0785,-0.0804,-0.0853,-0.0863,-0.0819,-0.0907,-0.0921,-0.0957,-0.0933,-0.0977,-0.0981,-0.1075,-0.1074,-0.1074,-0.0954,0,0,0,0,0,0,-0.0685,-0.0691,-0.0691,-0.0728,-0.0738,-0.076,-0.0779,-0.0786,-0.0806,-0.0808,-0.0868,-0.0878,-0.0908,-0.0949,-0.0962,-0.094,-0.0985,-0.1075,-0.1074,-0.1074,-0.0958,-0.0949,-0.0942,0,0,0,0,0,-0.0683,-0.0683,-0.069,-0.0696,-0.0737,-0.0759,-0.0766,-0.0789,-0.0807,-0.0808,-0.0844,-0.0876,-0.0954,-0.0953,-0.0968,-0.0947,-0.1075,-0.1075,-0.1074,-0.0962,-0.0951,-0.0942,0,0,0,0,0,0,-0.0669,-0.0687,-0.0696,-0.0705,-0.0724,-0.0763,-0.0768,-0.0792,-0.0823,-0.0826,-0.0878,-0.0891,-0.0912,-0.0955,-0.0953,-0.0976,-0.1019,-0.1021,-0.0928,-0.0919,-0.0911,-0.0875,-0.0989,0,0,0,0,0,-0.0662,-0.0659,-0.0687,-0.0694,-0.0701,-0.0737,-0.0751,-0.0765,-0.0798,-0.0812,-0.0851,-0.0893,-0.0922,-0.0939,-0.0977,-0.0997,-0.1011,-0.0994,-0.0986,-0.0978,-0.0961,-0.0958,-0.0946,-0.1071,-0.1071,-0.1071,0,0,-0.0661,-0.0669,-0.067,-0.0689,-0.0708,-0.0705,-0.0745,-0.0759,-0.0755,-0.0822,-0.0833,-0.0872,-0.0923,-0.0932,-0.0945,-0.0963,-0.095,-0.0977,-0.097,-0.0957,-0.0955,-0.0943,-0.0932,-0.107,-0.107,-0.1071,0,0,-0.0649,-0.0662,-0.0651,-0.0659,-0.0674,-0.0686,-0.0689,-0.0723,-0.0734,-0.075,-0.079,-0.0804,-0.0868,-0.0876,-0.0895,-0.087,-0.0909,-0.0896,-0.082,-0.0816,-0.0805,-0.0795,-0.0786,-0.0777,-0.0887,-0.0886,-0.0886,0,-0.0653,-0.0638,-0.0654,-0.0643,-0.0644,-0.0673,-0.0663,-0.0675,-0.0714,-0.0715,-0.0737,-0.0784,-0.0829,-0.082,-0.0806,-0.0846,-0.0856,-0.0847,-0.0801,-0.0792,-0.0784,-0.0777,-0.0768,-0.0881,-0.0881,-0.0882,-0.0882,0,-0.0626,-0.0616,-0.0613,-0.0598,-0.0597,-0.0597,-0.0606,-0.0607,-0.0623,-0.0631,-0.0633,-0.0676,-0.0701,-0.0713,-0.0752,-0.072,-0.0748,-0.079,-0.0815,-0.0763,-0.0761,-0.0753,-0.0872,-0.0874,-0.0876,-0.0878,0,0,-0.064,-0.0603,-0.0601,-0.058,-0.0574,-0.0571,-0.055,-0.0539,-0.0518,-0.0536,-0.0507,-0.0539,-0.056,-0.0583,-0.0627,-0.0614,-0.0566,-0.0672,-0.0674,-0.0642,-0.0552,-0.0554,-0.0547,-0.0602,-0.06,-0.0599,-0.0567,0,-0.0621,-0.0583,-0.0568,-0.0527,-0.0508,-0.051,-0.0485,-0.0472,-0.0467,-0.0443,-0.0458,-0.0459,-0.0513,-0.0522,-0.0512,-0.056,-0.0544,-0.057,-0.0625,-0.0626,-0.0618,-0.0538,-0.0489,-0.0456,-0.056,-0.0559,-0.0558,0,-0.0593,-0.057,-0.053,-0.048,-0.0474,-0.0449,-0.0405,-0.0385,-0.0351,-0.0352,-0.0334,-0.0359,-0.0342,-0.0401,-0.0413,-0.0431,-0.0478,-0.0506,-0.0507,-0.0544,-0.0615,-0.053,-0.0439,-0.0576,-0.0548,-0.0548,-0.0549,0,-0.0574,-0.0537,-0.05,-0.0489,-0.0443,-0.0421,-0.0393,-0.0356,-0.0316,-0.0291,-0.0253,-0.0259,-0.0251,-0.0292,-0.0352,-0.0389,-0.0355,-0.0425,-0.0462,-0.0463,-0.0448,-0.0451,-0.0477,-0.0423,-0.0423,-0.0423,-0.0423,0,-0.0546,-0.0514,-0.049,-0.0466,-0.0416,-0.0395,-0.033,-0.0309,-0.0246,-0.0164,-0.0204,-0.0138,-0.0224,-0.0219,-0.0295,-0.0331,-0.0315,-0.0417,-0.0443,-0.0407,-0.0406,-0.055,-0.0634,-0.0422,-0.0422,-0.0422,-0.0422,0,-0.0502,-0.0499,-0.0445,-0.0406,-0.0398,-0.0353,-0.0278,-0.0217,-0.0185,-0.0073,-0.0058,-0.0035,-0.0029,-0.01,-0.0158,-0.0252,-0.0352,-0.0327,-0.0272,-0.0292,-0.048,-0.0558,-0.0588,-0.0623,-0.0363,-0.0363,-0.0363,0,-0.0475,-0.0447,-0.0392,-0.0359,-0.0336,-0.0283,-0.0232,-0.0192,-0.0111,0.0011,0.0087,0.0115,0.0183,0.0104,-0.0051,-0.016,-0.0298,-0.0242,-0.0311,-0.045,-0.0557,-0.0614,-0.0645,-0.0242,-0.0241,-0.024,-0.0239,0,-0.0421,-0.04,-0.0354,-0.0269,-0.0222,-0.0147,-0.0069,-0.0003,0.008,0.0186,0.034,0.0407,0.0334,0.0272,0.0086,-0.0027,-0.0315,-0.0228,-0.0378,-0.0452,-0.0507,-0.0566,-0.0313,-0.023,-0.0231,-0.0232,-0.0232,-0.0233,-0.0382,-0.0327,-0.0258,-0.0171,-0.0106,0.0011,0.0109,0.0218,0.037,0.061,0.0588,0.0779,0.0566,0.0341,0.0135,-0.0229,-0.025,-0.0352,-0.0429,-0.047,-0.0516,-0.024,-0.0193,-0.0194,-0.0194,-0.0195,-0.0195,0,-0.0328,-0.0255,-0.0161,-0.0047,0.0076,0.0091,0.0246,0.0403,0.0625,0.0838,0.1014,0.1054,0.0797,0.0458,-0.0043,-0.0359,-0.0481,-0.0541,-0.0616,-0.0636,-0.0386,-0.0397,-0.0384,-0.0384,-0.0384,-0.0384,-0.0384,-0.0383,-0.0295,-0.0192,-0.012,0.0091,0.0191,0.0397,0.0511,0.0755,0.0957,0.1293,0.1466,0.154,0.1273,0.026,-0.0425,-0.06,-0.0802,-0.0843,-0.0965,-0.0825,-0.0814,-0.0804,-0.0834,-0.0914,-0.0914,-0.1155,-0.1158,-0.116]}],[{"header":{"parameterUnit":"m.s-1","parameterCategory":2,"la1":30.2991,"la2":30.254,"lo1":-89.0895,"lo2":-89.0444,"dy":0.0017,"dx":0.0017,"nx":28,"ny":28,"refTime":"2023-08-06T03:00:00:Z","depth":"2","parameterNumber":2,"parameterNumberName":"U-component_of_CURRENTS"},"data":[0,0,0,0,0,0,0,0,0,0,0,0,0,0,0,0,0,0,0,0,0,0,0,0,0,0,0,0,0,0,0,0,0,0,0,0,0,0,0,0,0,0,0,0,0,0,0,0,0,0,0,0,0,0,0,0,0,0,0.1331,0.1337,0,0.1575,0.1575,0.1575,0.17,0.1704,0.1707,0.1711,0.1685,0.1681,0.1677,0,0,0,0,0,0,0,0,0,0,0,0,0,0.0881,0.0886,0.133,0.1337,0.1344,0.1575,0.1575,0.1575,0.1699,0.1704,0.1708,0.1712,0.1686,0.1681,0.1676,0,0,0,0,0,0,0,0,0,0,0,0,0,0.106,0.0888,0.1329,0.1461,0.1478,0.1575,0.1575,0.1575,0.1699,0.1704,0.1709,0.1714,0.1688,0.1682,0.1676,0.1531,0,0,0.1657,0.1655,0,0,0,0,0,0,0,0,0.105,0.1071,0.1436,0.1453,0.1473,0.1646,0.141,0.156,0.1697,0.1575,0.1711,0.1717,0.1667,0.1663,0.1647,0.153,0.1529,0.1657,0.1653,0.1651,0.1649,0,0,0,0,0,0,0,0.1037,0.1062,0.1389,0.1443,0.1466,0.1481,0.1508,0.1436,0.1553,0.1586,0.1605,0.1691,0.1671,0.1653,0.1648,0.1528,0.1657,0.1652,0.1648,0.1645,0.1543,0.1544,0,0,0,0,0,0,0.1083,0.105,0.1382,0.14,0.1313,0.1487,0.1517,0.1554,0.1561,0.1581,0.1686,0.1697,0.166,0.1654,0.1647,0.1701,0.1651,0.1645,0.1641,0.1542,0.1543,0.1544,0,0,0,0,0,0,0.107,0.1107,0.1373,0.1264,0.1304,0.1494,0.1532,0.1557,0.1613,0.1647,0.1654,0.1732,0.1664,0.1656,0.1638,0.1693,0.1642,0.1637,0.1541,0.1542,0.1544,0.1663,0,0,0,0,0,0,0.1055,0.1099,0.1077,0.1265,0.1314,0.1386,0.1532,0.1559,0.1672,0.1688,0.1685,0.1686,0.1668,0.1647,0.1632,0.1683,0.1632,0.154,0.1542,0.1543,0.1658,0.1668,0.1677,0,0,0,0,0,0.1037,0.1002,0.1072,0.1113,0.1296,0.1386,0.1401,0.1533,0.167,0.1615,0.1693,0.1689,0.1649,0.1641,0.1623,0.1675,0.1539,0.1541,0.1543,0.1654,0.1666,0.1677,0,0,0,0,0,0,0.0835,0.1022,0.1101,0.1136,0.1242,0.1421,0.1418,0.1553,0.1572,0.1614,0.1665,0.1663,0.1684,0.1638,0.163,0.1651,0.1605,0.1604,0.1696,0.1707,0.1716,0.1745,0.1627,0,0,0,0,0,0.0778,0.0793,0.0981,0.102,0.106,0.1248,0.1304,0.1413,0.1512,0.1533,0.1586,0.1629,0.1658,0.1655,0.1633,0.1601,0.1631,0.1633,0.1643,0.1652,0.1663,0.1749,0.1769,0.1551,0.1551,0.1551,0,0,0.0751,0.0844,0.0872,0.0976,0.1073,0.116,0.1282,0.1375,0.1482,0.1514,0.1616,0.1645,0.1658,0.1667,0.1672,0.1646,0.1735,0.1654,0.1662,0.1669,0.1754,0.1776,0.1795,0.1552,0.1552,0.1552,0,0,0.0741,0.0746,0.0776,0.0822,0.0973,0.1078,0.1127,0.131,0.1379,0.148,0.1573,0.1635,0.1663,0.1694,0.1721,0.1749,0.1788,0.1762,0.1826,0.191,0.193,0.1948,0.2047,0.2073,0.1762,0.1762,0.1762,0,0.0766,0.0784,0.0795,0.0838,0.0933,0.1068,0.1172,0.1223,0.14,0.1451,0.152,0.1679,0.169,0.1759,0.1817,0.1776,0.1844,0.179,0.1928,0.1946,0.1962,0.2059,0.2086,0.1768,0.1767,0.1767,0.1766,0,0.0784,0.0795,0.0807,0.0925,0.0971,0.1053,0.1186,0.122,0.1389,0.1504,0.1616,0.1667,0.1767,0.1803,0.1846,0.1962,0.1984,0.1941,0.191,0.1992,0.2088,0.2114,0.1777,0.1774,0.1773,0.1771,0,0,0.0999,0.0871,0.0906,0.0924,0.1031,0.1106,0.1183,0.1311,0.141,0.1529,0.1691,0.1788,0.1847,0.1881,0.1927,0.2028,0.2238,0.2067,0.2069,0.2187,0.2474,0.2362,0.238,0.2248,0.2252,0.2256,0.2509,0,0.1106,0.1099,0.1069,0.1171,0.1182,0.1241,0.1312,0.1402,0.1509,0.1629,0.1706,0.1848,0.1864,0.1965,0.2058,0.2201,0.2308,0.2175,0.2357,0.2363,0.227,0.2405,0.2161,0.2355,0.2534,0.2539,0.2542,0,0.1223,0.1171,0.1211,0.1216,0.1255,0.137,0.1491,0.1569,0.1652,0.1722,0.182,0.1899,0.2061,0.2082,0.2329,0.2262,0.2388,0.2488,0.2498,0.2365,0.2297,0.2292,0.2395,0.2584,0.2581,0.2578,0.2575,0,0.1323,0.1337,0.1351,0.1355,0.136,0.1453,0.1552,0.1624,0.1663,0.1807,0.1881,0.202,0.2169,0.2314,0.2512,0.2463,0.2808,0.2727,0.2727,0.2721,0.2528,0.2496,0.2907,0.2906,0.2906,0.2905,0.2904,0,0.1436,0.1471,0.1393,0.1395,0.1496,0.1522,0.1654,0.1729,0.1805,0.1895,0.1959,0.2081,0.2256,0.2443,0.2576,0.275,0.2841,0.2782,0.2787,0.2562,0.2531,0.2713,0.2688,0.2914,0.2912,0.291,0.2909,0,0.1536,0.145,0.1477,0.1492,0.1515,0.1623,0.1718,0.176,0.1844,0.1977,0.2042,0.2194,0.2463,0.26,0.2894,0.2838,0.3007,0.304,0.2774,0.274,0.2849,0.2827,0.3048,0.3046,0.3045,0.3044,0.3043,0,0.1487,0.1536,0.1564,0.1557,0.1598,0.168,0.1707,0.1794,0.185,0.2058,0.2155,0.2415,0.2573,0.2872,0.2889,0.3032,0.3128,0.2846,0.2654,0.2886,0.287,0.2849,0.2828,0.2483,0.2477,0.2473,0.2469,0,0.1504,0.1612,0.1604,0.1599,0.1656,0.168,0.1787,0.1819,0.1949,0.2058,0.2294,0.2437,0.2668,0.2671,0.2777,0.2823,0.2777,0.2752,0.3123,0.2444,0.2361,0.2341,0.2339,0.2429,0.2433,0.2436,0.2438,0.244,0.1558,0.1579,0.1596,0.1657,0.1666,0.1714,0.1767,0.186,0.1968,0.2118,0.2307,0.2415,0.2382,0.2401,0.243,0.2455,0.2601,0.2472,0.2483,0.25,0.2349,0.2263,0.2288,0.2291,0.2294,0.2296,0.2298,0,0.1534,0.158,0.1612,0.1628,0.1663,0.1721,0.1792,0.1809,0.1963,0.2045,0.2186,0.199,0.1979,0.2068,0.1987,0.1952,0.1921,0.1947,0.1871,0.1911,0.1947,0.1764,0.1552,0.155,0.1548,0.1546,0,0,0.1531,0.1502,0.1547,0.1598,0.1652,0.169,0.1762,0.1789,0.1814,0.1811,0.1793,0.1812,0.1897,0.1613,0.1604,0.1589,0.1745,0.1559,0.2151,0.2097,0.213,0.2241,0.2003,0,0,0,0,0]},{"header":{"parameterUnit":"m.s-1","parameterCategory":2,"la1":30.2991,"la2":30.254,"lo1":-89.0895,"lo2":-89.0444,"dy":0.0017,"dx":0.0017,"nx":28,"ny":28,"refTime":"2023-08-06T03:00:00:Z","depth":"2","parameterNumber":3,"parameterNumberName":"V-component_of_CURRENTS"},"data":[0,0,0,0,0,0,0,0,0,0,0,0,0,0,0,0,0,0,0,0,0,0,0,0,0,0,0,0,0,0,0,0,0,0,0,0,0,0,0,0,0,0,0,0,0,0,0,0,0,0,0,0,0,0,0,0,0,0,-0.0057,-0.0061,0,-0.0217,-0.0217,-0.0217,-0.0291,-0.0293,-0.0294,-0.0296,-0.0417,-0.0419,-0.042,0,0,0,0,0,0,0,0,0,0,0,0,0,0.0151,0.0149,-0.0057,-0.0061,-0.0065,-0.0217,-0.0217,-0.0217,-0.0291,-0.0293,-0.0295,-0.0297,-0.0417,-0.0419,-0.0421,0,0,0,0,0,0,0,0,0,0,0,0,0,0.0052,0.0149,-0.0056,-0.0134,-0.0144,-0.0217,-0.0217,-0.0217,-0.029,-0.0293,-0.0295,-0.0298,-0.0416,-0.0418,-0.0421,-0.0385,0,0,-0.0428,-0.0429,0,0,0,0,0,0,0,0,0.0058,0.0047,-0.0119,-0.0129,-0.0141,-0.0254,-0.019,-0.0279,-0.029,-0.0214,-0.0296,-0.0299,-0.037,-0.0377,-0.0373,-0.0391,-0.0396,-0.0429,-0.043,-0.0431,-0.0432,0,0,0,0,0,0,0,0.0065,0.0053,-0.01,-0.0123,-0.0137,-0.0175,-0.0189,-0.0205,-0.0259,-0.0221,-0.0231,-0.028,-0.0373,-0.037,-0.0377,-0.0398,-0.0429,-0.0431,-0.0432,-0.0433,-0.0523,-0.0524,0,0,0,0,0,0,0.0049,0.006,-0.0096,-0.0107,-0.0068,-0.0178,-0.0193,-0.0199,-0.0261,-0.0279,-0.0278,-0.0283,-0.0365,-0.0374,-0.0382,-0.0413,-0.0431,-0.0433,-0.0435,-0.0522,-0.0524,-0.0525,0,0,0,0,0,0,0.0055,0.0039,-0.0089,-0.0046,-0.0068,-0.018,-0.0186,-0.0201,-0.0234,-0.0308,-0.0322,-0.0302,-0.0367,-0.0378,-0.0421,-0.0416,-0.0435,-0.0437,-0.0521,-0.0523,-0.0524,-0.0431,0,0,0,0,0,0,0.0063,0.0043,0.0073,-0.0045,-0.0071,-0.0107,-0.0186,-0.0203,-0.0268,-0.0277,-0.0333,-0.0345,-0.037,-0.0417,-0.0424,-0.042,-0.0439,-0.052,-0.0522,-0.0524,-0.0433,-0.0429,-0.0426,0,0,0,0,0,0.0072,0.0116,0.0077,0.0058,-0.0038,-0.0107,-0.0118,-0.0197,-0.0267,-0.0241,-0.0318,-0.0345,-0.0434,-0.0419,-0.0427,-0.0423,-0.0519,-0.0521,-0.0523,-0.0434,-0.043,-0.0426,0,0,0,0,0,0,0.019,0.0106,0.0063,0.0071,-0.0007,-0.0127,-0.0122,-0.0205,-0.0243,-0.0275,-0.0342,-0.0356,-0.0401,-0.0428,-0.0411,-0.0461,-0.0486,-0.049,-0.0416,-0.0412,-0.0408,-0.0332,-0.0441,0,0,0,0,0,0.0234,0.0258,0.0141,0.0138,0.0111,-0.0012,-0.0048,-0.0126,-0.0208,-0.0229,-0.029,-0.0359,-0.0406,-0.0423,-0.0465,-0.0472,-0.0476,-0.0484,-0.0481,-0.0477,-0.0425,-0.0448,-0.0439,-0.0531,-0.0531,-0.0531,0,0,0.0259,0.0219,0.0223,0.0168,0.0103,0.0076,-0.0032,-0.0104,-0.0133,-0.0235,-0.0269,-0.0349,-0.0412,-0.0433,-0.0454,-0.0456,-0.0458,-0.048,-0.0475,-0.0424,-0.0449,-0.0439,-0.0431,-0.0533,-0.0532,-0.0532,0,0,0.0309,0.0303,0.0335,0.0299,0.0197,0.013,0.0101,-0.0028,-0.0068,-0.0135,-0.0225,-0.0291,-0.0368,-0.0393,-0.0422,-0.042,-0.0449,-0.0465,-0.0362,-0.0387,-0.0378,-0.037,-0.0365,-0.0357,-0.0448,-0.0448,-0.0448,0,0.0314,0.0353,0.0326,0.0337,0.0303,0.0153,0.0145,0.0098,-0.0039,-0.0047,-0.0138,-0.0262,-0.0336,-0.0335,-0.0352,-0.0403,-0.0418,-0.0368,-0.0375,-0.0368,-0.0361,-0.0359,-0.0351,-0.0444,-0.0444,-0.0445,-0.0445,0,0.0377,0.041,0.0417,0.04,0.0394,0.0342,0.0261,0.0248,0.0137,0.0059,0.0001,-0.0116,-0.0178,-0.0236,-0.0297,-0.0287,-0.0314,-0.0377,-0.037,-0.0345,-0.0346,-0.034,-0.0438,-0.0439,-0.044,-0.0441,0,0,0.0312,0.0431,0.0421,0.0459,0.0408,0.039,0.0413,0.0382,0.0399,0.0249,0.0258,0.012,0.0024,-0.0014,-0.0117,-0.0143,-0.0144,-0.0232,-0.0236,-0.0195,-0.0175,-0.0176,-0.017,-0.0216,-0.0214,-0.0213,-0.0193,0,0.0316,0.0412,0.0453,0.0498,0.0539,0.0506,0.0562,0.0538,0.0478,0.0468,0.0333,0.0266,0.0115,0.0061,0.0013,-0.0112,-0.0123,-0.0141,-0.0231,-0.0231,-0.021,-0.0161,-0.0204,-0.0188,-0.0188,-0.0187,-0.0186,0,0.0336,0.041,0.05,0.0622,0.063,0.0623,0.0707,0.0726,0.0731,0.0702,0.0631,0.0501,0.0422,0.0268,0.013,0.0119,-0.0001,-0.0096,-0.01,-0.0113,-0.022,-0.0218,-0.0177,-0.0176,-0.0177,-0.0177,-0.0178,0,0.0339,0.043,0.0519,0.054,0.0655,0.0685,0.0702,0.0766,0.0821,0.0815,0.082,0.0713,0.0612,0.0474,0.0232,0.0181,0.0095,-0.0006,-0.0096,-0.0097,-0.015,-0.0158,-0.0059,-0.0059,-0.006,-0.006,-0.006,0,0.0343,0.0391,0.0514,0.0548,0.0643,0.0709,0.0789,0.0844,0.0918,0.0976,0.0886,0.0903,0.0647,0.0536,0.0341,0.0157,0.0173,-0.003,-0.008,-0.0123,-0.0128,-0.0138,-0.0147,-0.0059,-0.0059,-0.0059,-0.0059,0,0.0331,0.0416,0.0512,0.0624,0.0654,0.0702,0.0801,0.0888,0.0959,0.1036,0.1026,0.1018,0.0894,0.0673,0.046,0.0285,0.0122,0.0054,0.004,-0.001,-0.0074,-0.0079,-0.0016,-0.0016,-0.0015,-0.0015,-0.0015,0,0.0389,0.0411,0.0538,0.0598,0.0611,0.0694,0.0784,0.0884,0.097,0.1106,0.1143,0.1083,0.1082,0.0829,0.049,0.0226,0.0173,0.0037,-0.0067,-0.0008,-0.0063,-0.0069,-0.0075,-0.011,-0.011,-0.0111,-0.0111,0,0.0408,0.0393,0.047,0.0599,0.066,0.0779,0.0862,0.0954,0.1092,0.121,0.1351,0.1383,0.1125,0.0857,0.0498,0.0306,0.0078,0.0022,0.0093,-0.011,-0.0094,-0.0149,-0.0152,-0.0115,-0.0115,-0.0115,-0.0114,-0.0114,0.0382,0.0417,0.0498,0.0595,0.0699,0.0837,0.0932,0.1067,0.1258,0.1417,0.1452,0.147,0.114,0.0656,0.0381,0.0055,0.006,-0.008,-0.008,-0.0079,-0.009,-0.0074,-0.0091,-0.009,-0.009,-0.009,-0.0089,0,0.0392,0.0409,0.0504,0.0641,0.0758,0.0801,0.1007,0.1162,0.1385,0.144,0.1559,0.1248,0.0982,0.0641,0.0132,-0.0114,-0.016,-0.0169,-0.0204,-0.0198,-0.0194,-0.0212,-0.0245,-0.0245,-0.0246,-0.0246,0,0,0.0369,0.0463,0.0509,0.0677,0.0757,0.0941,0.1059,0.1315,0.1433,0.1547,0.1476,0.1361,0.0974,0.0558,0.0222,-0.0011,-0.0038,-0.0049,0.0093,0.0096,0.0103,-0.0135,-0.0154,0,0,0,0,0]}],[{"header":{"parameterUnit":"m.s-1","parameterCategory":2,"la1":30.2991,"la2":30.254,"lo1":-89.0895,"lo2":-89.0444,"dy":0.0017,"dx":0.0017,"nx":28,"ny":28,"refTime":"2023-08-06T03:00:00:Z","depth":"4","parameterNumber":2,"parameterNumberName":"U-component_of_CURRENTS"},"data":[0,0,0,0,0,0,0,0,0,0,0,0,0,0,0,0,0,0,0,0,0,0,0,0,0,0,0,0,0,0,0,0,0,0,0,0,0,0,0,0,0,0,0,0,0,0,0,0,0,0,0,0,0,0,0,0,0,0,-0.0231,-0.0231,0,-0.0231,-0.0231,-0.0231,-0.0234,-0.0234,-0.0234,-0.0233,-0.0327,-0.0329,-0.0332,0,0,0,0,0,0,0,0,0,0,0,0,0,-0.0254,-0.0253,-0.0231,-0.0231,-0.0231,-0.023,-0.0231,-0.0231,-0.0234,-0.0234,-0.0234,-0.0233,-0.0326,-0.0329,-0.0332,0,0,0,0,0,0,0,0,0,0,0,0,0,-0.025,-0.0253,-0.0231,-0.023,-0.023,-0.023,-0.0231,-0.0231,-0.0234,-0.0234,-0.0234,-0.0233,-0.0325,-0.0329,-0.0333,-0.0361,0,0,-0.0345,-0.0346,0,0,0,0,0,0,0,0,-0.025,-0.0249,-0.0231,-0.023,-0.023,-0.023,-0.0273,-0.0278,-0.0234,-0.0235,-0.0233,-0.0233,-0.0302,-0.0307,-0.031,-0.0365,-0.0369,-0.0345,-0.0347,-0.0349,-0.035,0,0,0,0,0,0,0,-0.025,-0.0249,-0.0233,-0.023,-0.023,-0.0236,-0.0236,-0.0274,-0.0273,-0.0235,-0.0235,-0.0231,-0.0302,-0.0306,-0.0312,-0.0371,-0.0345,-0.0348,-0.0351,-0.0352,-0.0495,-0.0496,0,0,0,0,0,0,-0.0244,-0.025,-0.0233,-0.0233,-0.0237,-0.0236,-0.0235,-0.0232,-0.0271,-0.0275,-0.0231,-0.0231,-0.03,-0.0308,-0.0316,-0.0401,-0.0349,-0.0353,-0.0355,-0.0493,-0.0495,-0.0497,0,0,0,0,0,0,-0.0245,-0.0243,-0.0233,-0.0239,-0.0238,-0.0235,-0.0232,-0.0232,-0.0232,-0.0266,-0.0273,-0.023,-0.03,-0.031,-0.0375,-0.0403,-0.0354,-0.0358,-0.0492,-0.0494,-0.0496,-0.054,0,0,0,0,0,0,-0.0246,-0.0243,-0.0239,-0.0239,-0.0238,-0.0227,-0.0232,-0.0232,-0.0229,-0.0229,-0.0268,-0.0276,-0.03,-0.037,-0.0379,-0.0407,-0.0361,-0.049,-0.0493,-0.0495,-0.0537,-0.0544,-0.0549,0,0,0,0,0,-0.0247,-0.0242,-0.0239,-0.0237,-0.0232,-0.0226,-0.0226,-0.0225,-0.0229,-0.0226,-0.0278,-0.0274,-0.0393,-0.0375,-0.0386,-0.0415,-0.0489,-0.0492,-0.0495,-0.0534,-0.0542,-0.0549,0,0,0,0,0,0,-0.0254,-0.0242,-0.0239,-0.0232,-0.0225,-0.0225,-0.0224,-0.0223,-0.0257,-0.0275,-0.0303,-0.0316,-0.038,-0.0392,-0.0371,-0.0463,-0.0436,-0.0441,-0.0462,-0.047,-0.0476,-0.0429,-0.0364,0,0,0,0,0,-0.0252,-0.0244,-0.0234,-0.023,-0.0226,-0.0225,-0.0223,-0.0229,-0.0255,-0.0267,-0.0317,-0.0364,-0.0401,-0.043,-0.0471,-0.0528,-0.0499,-0.055,-0.0556,-0.0561,-0.0531,-0.0533,-0.0535,-0.0507,-0.0507,-0.0507,0,0,-0.0253,-0.0246,-0.0242,-0.023,-0.0228,-0.0236,-0.0224,-0.0229,-0.0251,-0.0278,-0.0352,-0.0391,-0.042,-0.0488,-0.0516,-0.0504,-0.0557,-0.0565,-0.057,-0.0536,-0.0536,-0.0538,-0.054,-0.051,-0.0509,-0.0509,0,0,-0.0254,-0.0247,-0.0239,-0.0241,-0.0239,-0.0244,-0.0243,-0.0268,-0.0288,-0.0356,-0.0382,-0.0433,-0.0515,-0.0537,-0.0553,-0.0612,-0.0587,-0.0635,-0.0635,-0.0639,-0.064,-0.0641,-0.0611,-0.0609,-0.0641,-0.0641,-0.0641,0,-0.0257,-0.0245,-0.0237,-0.024,-0.0245,-0.0248,-0.0256,-0.0278,-0.0336,-0.0355,-0.0388,-0.0493,-0.0528,-0.0566,-0.0594,-0.0623,-0.061,-0.0607,-0.0645,-0.0645,-0.0645,-0.0614,-0.0611,-0.0644,-0.0644,-0.0643,-0.0643,0,-0.0253,-0.0251,-0.025,-0.0256,-0.0267,-0.0272,-0.03,-0.0335,-0.0376,-0.0402,-0.0469,-0.0533,-0.0574,-0.0612,-0.0625,-0.0648,-0.0634,-0.065,-0.062,-0.065,-0.0616,-0.0612,-0.0647,-0.0647,-0.0646,-0.0645,0,0,-0.0241,-0.0242,-0.0244,-0.0244,-0.0276,-0.028,-0.0328,-0.0347,-0.0359,-0.045,-0.0471,-0.0559,-0.0577,-0.0592,-0.0626,-0.0644,-0.0649,-0.065,-0.0649,-0.0608,-0.0634,-0.0477,-0.0457,-0.0681,-0.068,-0.068,-0.061,0,-0.0234,-0.0227,-0.0246,-0.0263,-0.0259,-0.0295,-0.0328,-0.0364,-0.0403,-0.0439,-0.049,-0.0526,-0.0571,-0.0591,-0.062,-0.0638,-0.0639,-0.0663,-0.0619,-0.0616,-0.0464,-0.0447,-0.0679,-0.0607,-0.0606,-0.0605,-0.0605,0,-0.0226,-0.0216,-0.0218,-0.0241,-0.0245,-0.0268,-0.0301,-0.033,-0.0371,-0.0402,-0.0444,-0.048,-0.0513,-0.055,-0.0578,-0.0595,-0.0601,-0.0621,-0.0619,-0.0442,-0.045,-0.0571,-0.0597,-0.0597,-0.0598,-0.0598,-0.0599,0,-0.0199,-0.0207,-0.02,-0.021,-0.0237,-0.0252,-0.027,-0.0313,-0.0312,-0.0354,-0.0358,-0.042,-0.0426,-0.0472,-0.0504,-0.0543,-0.0518,-0.0575,-0.0434,-0.0423,-0.0568,-0.0567,-0.0567,-0.0567,-0.0567,-0.0568,-0.0568,0,-0.0185,-0.0185,-0.0177,-0.0175,-0.0161,-0.0211,-0.0205,-0.0232,-0.025,-0.0232,-0.0314,-0.0307,-0.0407,-0.0415,-0.0467,-0.0405,-0.0478,-0.0394,-0.0384,-0.059,-0.0593,-0.0564,-0.0565,-0.0565,-0.0565,-0.0566,-0.0566,0,-0.0174,-0.0167,-0.0153,-0.0155,-0.0144,-0.0139,-0.013,-0.0124,-0.015,-0.0128,-0.0131,-0.0191,-0.0184,-0.0253,-0.0298,-0.0305,-0.0302,-0.0263,-0.0432,-0.044,-0.0219,-0.0224,-0.0096,-0.0089,-0.0084,-0.0079,-0.0075,0,-0.0167,-0.0156,-0.0117,-0.0084,-0.0081,-0.0061,-0.0041,-0.0062,-0.0053,-0.005,-0.0036,-0.0018,-0.0055,0.0012,-0.0079,-0.0099,-0.0114,-0.0105,-0.0198,-0.0162,-0.0167,-0.018,-0.0191,-0.0067,-0.0066,-0.0064,-0.0063,0,-0.0156,-0.0142,-0.0118,-0.004,-0.0004,0.0029,0.0051,0.0069,0.0047,0.0055,0.0102,0.0116,0.0152,0.011,0.0129,0.0081,-0.0117,-0.0049,-0.0063,-0.0151,-0.0127,-0.0139,-0.0156,-0.0044,-0.0047,-0.0048,-0.005,0,-0.0147,-0.011,-0.0062,-0.0004,0.0035,0.0062,0.0085,0.0119,0.0141,0.0147,0.0182,0.0178,0.018,0.0212,0.0201,0.0214,0.0189,0.015,0.0125,0.0104,0.0136,0.0193,0.0421,0,0,0,0,0,-0.0114,-0.0068,-0.0023,0.0024,0.0045,0.0062,0.011,0.0121,0.0126,0.0198,0.0196,0.0238,0.0285,0.0272,0.0321,0.0254,0.015,0.0311,0.0082,0.006,0.0038,0.0055,0,0,0,0,0,0,-0.0089,-0.0037,-0.0018,0.0003,0.0023,0.0046,0.0061,0.0083,0.0123,0.0154,0.018,0.0252,0.0278,0.0253,0.0315,0.0319,0.0186,0.0337,0.0339,0.0072,0.0052,0.0035,0.0045,0,0,0,0,0]},{"header":{"parameterUnit":"m.s-1","parameterCategory":2,"la1":30.2991,"la2":30.254,"lo1":-89.0895,"lo2":-89.0444,"dy":0.0017,"dx":0.0017,"nx":28,"ny":28,"refTime":"2023-08-06T03:00:00:Z","depth":"4","parameterNumber":3,"parameterNumberName":"V-component_of_CURRENTS"},"data":[0,0,0,0,0,0,0,0,0,0,0,0,0,0,0,0,0,0,0,0,0,0,0,0,0,0,0,0,0,0,0,0,0,0,0,0,0,0,0,0,0,0,0,0,0,0,0,0,0,0,0,0,0,0,0,0,0,0,0.0433,0.0433,0,0.0396,0.0396,0.0395,0.0403,0.0404,0.0405,0.0405,0.0399,0.0399,0.0398,0,0,0,0,0,0,0,0,0,0,0,0,0,0.0482,0.0481,0.0433,0.0433,0.0432,0.0396,0.0396,0.0395,0.0403,0.0404,0.0405,0.0406,0.04,0.0399,0.0398,0,0,0,0,0,0,0,0,0,0,0,0,0,0.0453,0.048,0.0433,0.0432,0.0432,0.0397,0.0396,0.0395,0.0403,0.0404,0.0405,0.0406,0.04,0.0399,0.0397,0.0367,0,0,0.0393,0.0393,0,0,0,0,0,0,0,0,0.0455,0.0452,0.0433,0.0432,0.0432,0.0406,0.0411,0.0387,0.0403,0.0413,0.0405,0.0407,0.0404,0.0403,0.0392,0.0366,0.0366,0.0393,0.0393,0.0392,0.0392,0,0,0,0,0,0,0,0.0457,0.0453,0.0418,0.0432,0.0432,0.0424,0.0422,0.0406,0.0403,0.0412,0.0413,0.041,0.0404,0.0393,0.0392,0.0366,0.0393,0.0392,0.0391,0.0391,0.032,0.0319,0,0,0,0,0,0,0.0463,0.0455,0.0419,0.0417,0.0447,0.0423,0.042,0.0413,0.0402,0.0402,0.0409,0.041,0.0394,0.0393,0.0391,0.0373,0.0392,0.0391,0.039,0.0321,0.032,0.0319,0,0,0,0,0,0,0.0464,0.046,0.042,0.0436,0.0431,0.0421,0.0413,0.0411,0.0415,0.0399,0.04,0.0416,0.0395,0.0393,0.0398,0.0373,0.039,0.0389,0.0323,0.0321,0.0319,0.0325,0,0,0,0,0,0,0.0466,0.0461,0.0465,0.0436,0.043,0.0408,0.0412,0.041,0.0411,0.0413,0.0405,0.0405,0.0396,0.04,0.0397,0.0371,0.0388,0.0324,0.0322,0.032,0.0326,0.0324,0.0322,0,0,0,0,0,0.0468,0.0461,0.0466,0.0462,0.0434,0.0408,0.0404,0.04,0.041,0.0409,0.0414,0.0406,0.0383,0.0399,0.0395,0.0369,0.0325,0.0323,0.032,0.0327,0.0324,0.0322,0,0,0,0,0,0,0.0478,0.046,0.0465,0.0453,0.0439,0.041,0.0406,0.0406,0.0406,0.0415,0.0408,0.0407,0.0393,0.0382,0.04,0.0339,0.0346,0.0342,0.0352,0.0349,0.0347,0.0331,0.0387,0,0,0,0,0,0.0485,0.048,0.046,0.0452,0.0445,0.043,0.0423,0.042,0.0412,0.0413,0.0419,0.0406,0.0373,0.0369,0.0349,0.0329,0.0312,0.0302,0.03,0.0298,0.0281,0.0249,0.0243,0.0311,0.0311,0.0311,0,0,0.0485,0.0477,0.0473,0.0456,0.0444,0.0417,0.0429,0.0417,0.039,0.0411,0.0402,0.0405,0.0367,0.0341,0.0332,0.0335,0.0272,0.0295,0.0294,0.0277,0.0246,0.024,0.0234,0.0309,0.0309,0.031,0,0,0.0471,0.0477,0.0464,0.0452,0.0439,0.0421,0.0422,0.041,0.0403,0.0395,0.0391,0.0382,0.0364,0.0322,0.0294,0.0263,0.0262,0.0265,0.0241,0.0212,0.0206,0.0201,0.0183,0.0176,0.0263,0.0263,0.0263,0,0.0472,0.0451,0.0456,0.0436,0.0415,0.0422,0.0388,0.0371,0.037,0.0348,0.0394,0.0342,0.0334,0.0251,0.0256,0.0253,0.0258,0.026,0.021,0.0205,0.0199,0.0182,0.0174,0.0263,0.0263,0.0263,0.0263,0,0.044,0.0427,0.0416,0.0389,0.0369,0.0345,0.0318,0.0309,0.0318,0.0302,0.0266,0.0273,0.0242,0.0233,0.0243,0.0186,0.0209,0.0216,0.0222,0.0193,0.0176,0.0168,0.0263,0.0263,0.0263,0.0263,0,0,0.0419,0.0396,0.0392,0.0369,0.034,0.0313,0.0264,0.0206,0.0163,0.0189,0.0136,0.0115,0.0155,0.0126,0.0139,0.0123,0.0109,0.0174,0.0172,0.0164,0.0069,0.0045,0.0034,0.0132,0.013,0.0129,0.0078,0,0.0386,0.0348,0.0333,0.0275,0.0247,0.0222,0.0167,0.0123,0.0106,0.0071,0.0059,0.0042,0.0098,0.0116,0.0103,0.0106,0.0087,0.0123,0.009,0.0088,0.0077,0.0022,0.0123,0.0072,0.007,0.0069,0.0068,0,0.035,0.0329,0.0285,0.0211,0.0192,0.0167,0.0076,0.0032,-0.003,-0.0036,-0.0048,-0.0034,-0.0052,0.0016,-0.0007,0.0031,0.0052,0.0055,0.0054,0.0017,0.0047,0.0102,0.0053,0.0055,0.0056,0.0057,0.0058,0,0.0339,0.0279,0.0246,0.0228,0.016,0.013,0.0093,0.0022,-0.0026,-0.0066,-0.0083,-0.0111,-0.0097,-0.0088,-0.0051,-0.0011,-0.0081,-0.0039,-0.0061,-0.0061,-0.0022,-0.0016,-0.0077,-0.0077,-0.0077,-0.0077,-0.0076,0,0.03,0.0267,0.0255,0.0241,0.0187,0.0141,0.0076,0.0032,-0.0032,-0.0088,-0.0094,-0.0133,-0.0109,-0.0138,-0.0099,-0.0113,-0.012,-0.009,-0.009,-0.0016,-0.001,-0.0026,-0.002,-0.0079,-0.0078,-0.0078,-0.0077,0,0.0291,0.0281,0.0249,0.0206,0.0198,0.0174,0.0108,0.0049,0.0001,-0.0065,-0.0064,-0.0138,-0.016,-0.0175,-0.0185,-0.0179,-0.0192,-0.0198,-0.0134,-0.0125,-0.0135,-0.0128,-0.0227,-0.0228,-0.023,-0.0231,-0.0232,0,0.0275,0.0272,0.0265,0.0273,0.027,0.0235,0.0197,0.0108,0.0037,-0.0069,-0.0115,-0.016,-0.0194,-0.0229,-0.0255,-0.0254,-0.0237,-0.026,-0.0185,-0.0168,-0.0158,-0.0148,-0.0139,-0.0234,-0.0234,-0.0235,-0.0235,0,0.0247,0.0276,0.0259,0.0319,0.0309,0.024,0.0182,0.0127,0.0006,-0.0042,-0.0105,-0.0135,-0.02,-0.022,-0.0245,-0.0238,-0.0256,-0.0273,-0.0268,-0.0198,-0.0178,-0.0164,-0.0153,-0.024,-0.0239,-0.0239,-0.0238,0,0.0245,0.0241,0.0284,0.0322,0.037,0.031,0.0208,0.0126,0.0048,-0.0069,-0.0087,-0.0134,-0.0171,-0.0218,-0.0244,-0.025,-0.0224,-0.0202,-0.0201,-0.0196,-0.0173,-0.0142,-0.0217,0,0,0,0,0,0.0255,0.026,0.0283,0.029,0.0369,0.04,0.025,0.0117,-0.0004,-0.0017,-0.0044,-0.0081,-0.0123,-0.018,-0.0176,-0.0289,-0.0261,-0.0296,-0.024,-0.0266,-0.026,-0.0242,0,0,0,0,0,0,0.0237,0.0277,0.0272,0.0351,0.0413,0.0395,0.0348,0.0183,0.0136,0.0056,0.0038,-0.0011,-0.006,-0.0028,-0.0117,-0.0144,-0.0108,-0.0331,-0.0331,-0.0269,-0.0264,-0.026,-0.0239,0,0,0,0,0]}]]